User: anonymous   Login
Location: Honolulu
(21.3069°N, 157.8583°W)
Time: 12:44:46
(UTC-10:00)
Language:

ISS - Orbit

View from above orbital plane
View from above orbital plane
View from above satellite
View from above satellite

Ground track
Ground track

The orbit data is extracted from the following two-line orbital elements,

1 25544U 98067A   24176.76833546  .00017171  00000-0  31076-3 0  9999
2 25544  51.6435 277.7395 0010521   4.2416 130.7730 15.49714168459726
Epoch (UTC): 24 June 2024 18:26:24
Eccentricity: 0.0010521
inclination: 51.6435°
perigee height: 410 km
apogee height: 425 km
right ascension of ascending node: 277.7395°
argument of perigee: 4.2416°
revolutions per day: 15.49714168
mean anomaly at epoch: 130.7730°
orbit number at epoch: 45972

The dashed part of the orbit path shows where the satellite is in the earth's shadow,  

DLR